IRNSS-1I (43286 NORAD) Tracking and Keplerian Element Data

This shows tracking and keplerian element data for the satellite.

Feedback or suggestion? Click here.




ElementValue
Catalog43286
NameIRNSS-1I
Epoch Orbit1698
Epoch Day323.94493951
Epoch Year2022
RAAN94.835
Inclination29.0109
Eccentricity0.0021904
Argument of Perigee179.7493
Mean Anonmoly179.5755
Mean Motion1.0026912
Decay Rate1.29E-06
L11 43286U 18035A 22323.94493951 .00000129 00000+0 00000+0 0 9996
L22 43286 29.0109 94.8350 0021904 179.7493 179.5755 1.00269120 16985



Live tracking and technical data element details for IRNSS-1I (NORAD 43286). IRNSS-1I can be tracked NOW for your location showing map with azimuth and elevation plus other details from your city location.







IsCatalogInMostPopularTable: catalog: 43286, numindb: 3970
Update: records affected: 1



GetName: 43286 IRNSS-1I

Hit Count: updated at: Sun, 04 Dec 2022 20:58:47 GMT